This is the latest recevied weather packets stored in our database for station/object HB9FHL-13. If no packets are shown the sender has not sent any weather packets the latest 1 day(s).
| Time | Temp. | Humidity | Pressure | Rain* | Wind** | Luminosity | Snow |
|---|---|---|---|---|---|---|---|
| 1778005926 | 13.33° C | - | 1005.1 hPa | 0 mm | 4.02 m/s, 222° | - | - |
| 1778005624 | 12.78° C | - | 1020.1 hPa | 0 mm | 4.92 m/s, 236° | - | - |
| 1778005325 | 11.67° C | - | 1006.9 hPa | 0 mm | 4.47 m/s, 233° | - | - |
| 1778005023 | 11.67° C | - | 1015.8 hPa | 0 mm | 5.36 m/s, 231° | - | - |
| 1778004723 | 11.67° C | - | 1018.1 hPa | 0 mm | 5.81 m/s, 240° | - | - |
| 1778004422 | 12.78° C | - | 1008.9 hPa | 0 mm | 5.81 m/s, 242° | - | - |
| 1778004122 | 12.22° C | - | 1006.6 hPa | 0 mm | 5.36 m/s, 233° | - | - |
| 1778003821 | 11.11° C | - | 1012.5 hPa | 0 mm | 5.81 m/s, 240° | - | - |
| 1778003521 | 11.67° C | - | 1006.1 hPa | 0 mm | 6.26 m/s, 242° | - | - |
| 1778003220 | 11.67° C | - | 1010.9 hPa | 0 mm | 5.36 m/s, 231° | - | - |
| 1778002919 | 11.11° C | - | 1001.6 hPa | 0 mm | 4.92 m/s, 238° | - | - |
| 1778002618 | 12.78° C | - | 1011 hPa | 0 mm | 4.92 m/s, 203° | - | - |
| 1778002318 | 12.78° C | - | 1006.1 hPa | 0 mm | 4.92 m/s, 226° | - | - |
| 1778002018 | 12.22° C | - | 1007.6 hPa | 0 mm | 5.36 m/s, 211° | - | - |
| 1778001717 | 11.67° C | - | 1006.4 hPa | 0 mm | 5.81 m/s, 221° | - | - |
| 1778001417 | 12.22° C | - | 1007.8 hPa | 0 mm | 6.26 m/s, 233° | - | - |
| 1778001116 | 12.78° C | - | 1008.5 hPa | 0 mm | 5.36 m/s, 229° | - | - |
| 1778000815 | 13.33° C | - | 1018.1 hPa | 0 mm | 5.36 m/s, 242° | - | - |
| 1778000513 | 12.22° C | - | 1007.5 hPa | 0 mm | 5.81 m/s, 235° | - | - |
| 1778000213 | 12.78° C | - | 1001.5 hPa | 0 mm | 5.81 m/s, 232° | - | - |
| 1777999912 | 13.33° C | - | 1010.5 hPa | 0 mm | 4.02 m/s, 229° | - | - |
| 1777999612 | 13.33° C | - | 1013.3 hPa | 0 mm | 4.92 m/s, 238° | - | - |
| 1777999311 | 13.33° C | - | 1009.8 hPa | 0 mm | 6.26 m/s, 229° | - | - |
| 1777999010 | 14.44° C | - | 1005.1 hPa | 0 mm | 4.92 m/s, 243° | - | - |
| 1777998710 | 13.33° C | - | 1003.5 hPa | 0 mm | 4.02 m/s, 245° | - | - |
* Rain since midnight (hover to see other rain measurements)
** Current wind speed in m/s (hover to see current wind gust speed)